Temp_Advection
nan nan nan nan nan nan nan nan nan nan nan nan nan nan nan nan nan nan nan nan nan nan nan nan nan nan nan nan nan nan nan nan nan nan nan nan nan nan nan nan nan nan nan nan nan
nan 0 0 -0 -0 -0 -0 -0 -0 -1 -1 -1 -0 0 -0 0 0 -0 -0 -0 -0 -0 0 -0 -1 -1 -0 -0 -0 -0 -0 -1 -0 0 0 1 0 -0 0 0 -0 0 -1 1 nan
nan -0 -0 -0 -0 -0 -0 -0 -1 -2 -1 -0 0 -0 -0 0 -0 -1 -0 -0 -0 -0 0 -0 -0 -0 -0 -0 -0 -0 0 -1 -1 -2 -2 -2 -2 -1 0 -0 0 0 -0 0 nan
nan -0 -0 -0 -0 -0 -0 -0 -0 -1 -0 0 -0 -0 0 -1 -0 0 0 0 0 0 0 -0 -0 0 -0 -0 -0 -0 0 0 -0 -0 -0 -1 -2 -1 -1 -0 -0 -1 -1 -0 nan
nan -0 -0 -0 -0 -0 -0 -0 -0 -0 -0 -0 -0 0 -0 -2 1 0 0 0 0 0 0 0 0 0 -0 -0 -0 -0 -1 0 0 0 1 -0 -1 -1 -2 -1 -1 -1 -1 1 nan
nan -0 -0 -0 -0 -0 -0 -0 -0 -0 0 -0 0 0 -1 -0 0 0 -0 0 0 0 0 0 0 0 0 0 -0 -0 -0 -0 -0 0 0 -0 -0 -1 -0 -0 -0 -1 -1 -1 nan
nan -0 -0 -0 0 -0 0 0 -0 0 -0 0 0 0 -0 0 0 0 -0 0 0 0 0 0 0 0 0 -0 -0 0 0 -1 -0 -0 -0 -0 -0 -1 -1 -0 -1 -1 -1 -0 nan
nan -0 -0 -0 0 -0 0 0 0 0 -0 -0 0 -0 -0 1 0 -0 -1 0 0 0 -0 -0 -0 0 0 -0 -1 -0 -0 -0 -1 -0 -0 -0 -1 -0 -0 -0 -0 -0 -1 -1 nan
nan -0 -0 -0 -0 -0 0 0 -0 -0 -0 -0 0 -0 0 -0 -0 -0 0 0 -0 -0 -0 -0 -0 0 -0 -0 -0 -1 -0 -0 -1 -0 -0 0 -0 -0 -0 -0 -1 -0 -1 -1 nan
nan -0 -0 -0 0 -0 -0 -0 0 -0 -0 -0 -1 -0 0 -0 -0 -0 0 -0 -0 -0 -0 -0 -1 -0 -0 -0 0 0 0 -1 -0 -0 -0 -0 -0 -1 -0 -0 -0 -0 -0 -1 nan
nan 0 0 0 0 -0 -0 -0 0 -0 -1 -0 -0 -0 0 0 -0 -0 -0 -0 -1 -1 -0 -0 -1 -0 -0 -0 -0 -0 0 -0 -1 0 -0 -0 -0 -0 -0 0 0 -1 -1 -1 nan
nan 0 0 0 -0 -0 -0 -0 -0 -0 -0 0 0 0 -0 -0 -0 -0 -1 -1 -1 -0 -0 -0 0 0 0 0 0 0 -0 -0 -1 0 -0 -0 -0 -0 0 -1 -3 -3 -2 -1 nan
nan 0 0 0 -0 -0 -0 -0 -0 -0 -0 -0 0 0 0 0 -0 0 -1 -0 -0 -0 -0 0 -0 0 -0 -0 -0 -0 -0 -0 -0 -0 -0 0 -0 0 -0 -2 -1 -2 -1 -1 nan
nan 0 0 -0 -0 -0 -0 -0 -0 -0 -0 -0 -0 0 0 -0 -0 0 -0 -0 -0 -0 -0 -0 -0 -0 -0 0 0 0 0 -0 0 -0 -0 0 -0 -1 -1 -1 -1 -1 -1 -2 nan
nan -0 -0 -0 -0 -0 0 -0 -0 -0 0 -0 -0 -0 -2 -1 0 -0 -0 -0 -0 0 0 -0 0 -0 0 1 -0 -0 -1 -0 -0 -0 0 -0 -0 -0 -0 -1 -1 -0 -0 -1 nan
nan -0 0 0 -0 0 0 -0 -0 -0 0 -0 -0 -1 -1 -0 -0 -1 -1 -3 -0 -0 -0 -0 -0 -0 -0 0 -0 0 -0 -0 -0 0 0 -0 -0 -0 -0 -0 -0 -0 -1 -1 nan
nan -0 -0 -0 -0 0 0 -0 -0 -0 0 0 -0 -0 -0 -0 -0 -1 -0 -1 -0 -1 -1 -1 -0 -0 -0 -1 -0 -0 -0 -0 -0 0 0 -0 -1 -0 -0 -0 -0 -0 -0 -0 nan
nan -0 -0 -0 0 0 0 -0 -0 0 0 -0 -0 -0 0 -0 -0 -0 -0 0 -0 -0 -0 0 -0 0 -0 -0 0 0 -0 0 0 -0 -0 -1 -0 0 -0 -0 -0 -0 -0 -0 nan
nan -0 -0 0 0 0 -0 -1 0 0 0 0 -0 -0 -0 -0 -0 -0 -0 0 0 0 0 0 -1 -0 -0 0 -0 -0 0 0 0 -0 -0 -0 -0 -0 -0 -0 -1 -0 -1 -0 nan
nan -0 -0 0 0 -0 -1 -0 -0 -0 -0 -0 0 -0 0 -0 -0 -0 0 0 0 1 -0 0 -1 -0 -0 -0 -0 -0 0 -0 -0 0 -0 0 -0 0 -0 -1 -1 -1 -0 -0 nan
nan -0 0 0 -0 -3 -1 0 -0 0 0 -0 0 0 0 0 -0 -0 -0 -0 0 0 -0 -0 0 -1 -0 -1 0 -1 -0 -1 0 0 0 -0 1 1 0 0 -0 -1 0 0 nan
nan -0 -0 -0 -2 -1 0 -0 -0 0 0 0 0 0 0 0 0 -0 -0 -0 0 0 -0 0 -0 -0 0 0 -0 0 0 0 1 -0 0 0 0 0 -0 -0 0 0 0 0 nan
nan -0 -0 -1 -1 0 -0 -0 0 0 0 -0 0 -0 -0 0 0 0 -0 -0 -0 -0 0 0 -0 0 -0 0 0 -0 0 -0 0 0 -0 0 0 0 -0 -0 -0 0 -0 0 nan
nan -0 -0 -1 -1 -0 0 0 0 0 0 0 0 0 0 0 0 -0 -0 0 -0 -0 0 -0 -0 0 0 0 -0 0 1 -0 -0 0 -0 -0 -0 0 0 -0 -1 -0 -0 -0 nan
nan -0 -0 -0 -0 -0 0 -0 0 0 0 0 0 0 0 0 -0 -0 0 -0 -0 -0 -0 -0 -0 -0 -0 -1 -0 -0 1 -0 -0 -0 0 0 0 0 0 -1 -1 -0 -0 -0 nan
nan 0 0 0 0 -0 -0 0 -0 0 -0 0 0 0 0 -0 -1 0 -0 -0 -0 -0 -0 -0 -0 -0 -0 -0 0 0 0 0 0 0 0 -0 -0 0 -1 0 -0 -0 -0 -0 nan
nan nan nan nan nan nan nan nan nan nan nan nan nan nan nan nan nan nan nan nan nan nan nan nan nan nan nan nan nan nan nan nan nan nan nan nan nan nan nan nan nan nan nan nan nan
Wind_Speed
18 16 15 15 15 16 15 16 23 21 13 13 7 5 4 5 3 10 25 17 18 19 20 16 7 8 13 11 11 13 8 18 24 15 4 6 6 24 31 21 20 18 22 9 31
18 16 14 13 13 15 15 15 20 20 17 17 14 10 5 2 2 15 20 19 20 19 23 18 16 15 9 5 7 4 9 14 9 7 8 25 14 7 7 10 24 13 21 16 35
19 15 13 11 11 13 14 16 16 23 13 15 16 23 8 5 5 19 20 24 27 21 21 15 11 11 6 6 4 4 4 10 7 16 16 11 10 11 2 5 2 10 29 25 39
21 15 12 10 9 10 12 17 9 24 14 16 18 22 15 19 5 23 21 29 24 16 14 13 9 8 3 5 6 4 7 6 10 11 12 11 21 9 9 7 8 9 17 47 36
23 16 11 11 6 5 5 13 16 16 20 10 14 16 24 26 17 24 30 31 17 13 12 11 11 9 3 4 11 3 8 5 8 14 16 12 17 15 19 16 15 14 15 31 50
23 21 10 13 6 2 0 2 12 16 15 22 8 11 27 22 23 27 38 26 12 14 12 9 5 7 10 9 4 9 18 13 13 15 8 11 20 7 3 19 13 12 8 19 40
25 22 13 13 8 2 2 3 8 17 10 10 19 7 10 22 21 35 43 19 15 13 13 13 7 6 4 5 8 13 7 7 7 14 9 6 13 11 14 24 19 14 10 5 19
24 23 16 16 8 5 2 5 5 17 9 13 16 1 4 27 24 39 37 16 13 8 7 5 1 5 10 9 8 4 2 3 5 5 7 12 9 6 14 18 28 12 16 11 5
23 26 19 16 8 9 4 4 4 16 10 12 20 3 9 28 35 37 29 18 16 14 11 6 3 1 2 1 5 6 3 4 6 4 2 10 3 9 7 12 24 12 14 17 13
24 25 19 15 9 11 4 5 7 17 12 7 29 2 21 28 25 38 26 17 17 14 6 9 8 3 3 4 3 5 3 4 5 5 7 7 9 8 11 6 13 7 4 12 13
21 22 21 13 11 10 6 5 3 1 19 12 11 7 22 25 20 40 40 14 18 15 5 7 6 2 9 5 7 7 5 3 4 6 3 2 3 5 3 3 8 20 7 8 12
19 22 24 14 16 7 9 4 4 4 5 7 8 13 25 16 19 38 38 11 10 6 8 6 1 8 9 6 5 1 2 4 6 2 3 3 7 2 5 10 21 20 17 12 11
20 21 22 16 11 11 10 9 6 5 4 2 7 11 22 13 11 26 36 10 5 7 5 3 6 9 7 5 6 2 2 3 4 5 2 3 5 3 6 20 24 30 21 13 15
18 19 20 15 8 13 10 5 3 5 4 9 8 10 24 14 8 22 39 6 8 5 7 4 6 9 6 2 4 2 3 8 7 3 2 2 4 8 13 10 19 23 27 26 20
7 21 17 14 12 12 10 3 3 4 6 14 7 9 27 13 11 21 29 6 1 5 5 6 4 5 8 7 2 6 7 7 6 3 1 2 4 7 11 14 18 20 23 27 22
6 19 16 17 19 18 12 4 5 5 2 8 10 11 12 7 8 18 15 25 3 4 3 6 8 1 3 12 1 4 3 2 2 2 3 7 4 6 6 8 12 19 26 26 26
6 19 16 18 17 20 10 3 5 6 3 8 5 8 6 5 6 8 6 8 8 8 8 7 7 7 6 8 4 8 5 3 4 4 3 5 9 2 5 8 6 15 22 24 25
5 19 17 17 19 16 8 5 10 1 4 4 6 7 5 8 4 8 6 7 4 4 2 6 9 6 10 3 4 4 4 4 3 2 3 8 4 2 3 6 12 16 20 25 29
6 19 21 17 18 15 3 6 6 4 1 6 8 5 6 5 4 7 4 5 3 2 3 6 6 6 2 4 3 6 5 3 3 2 3 2 4 2 6 9 15 15 24 28 29
3 2 22 13 13 10 7 5 3 4 3 2 1 2 3 7 9 8 6 2 6 7 5 3 5 2 6 7 4 6 2 4 3 3 2 4 3 4 6 12 11 15 17 23 29
4 3 17 12 8 11 4 2 3 4 4 4 2 3 4 4 1 4 5 3 3 5 3 3 3 7 2 4 1 5 5 4 2 3 3 1 5 5 4 4 6 15 22 25 24
4 3 14 11 8 5 3 3 3 4 4 2 2 4 3 2 2 2 4 6 7 3 2 3 3 4 8 4 4 3 0 4 4 5 1 2 5 3 4 8 11 13 21 21 19
3 3 8 10 4 2 1 1 3 4 4 4 4 6 3 3 1 4 4 3 6 5 2 3 2 5 8 5 4 4 2 2 2 2 1 3 5 2 5 10 13 12 17 20 20
3 3 6 10 7 3 2 1 2 4 3 4 3 2 1 3 5 4 3 1 3 4 7 2 2 6 5 7 2 5 6 1 4 3 2 4 7 6 6 8 15 12 15 21 20
10 4 4 3 4 2 2 1 2 2 3 6 2 6 5 2 3 4 3 5 1 7 3 4 3 2 7 13 7 9 8 2 2 5 4 4 5 8 7 6 9 12 15 18 21
6 6 4 2 3 1 1 2 2 4 4 4 3 3 6 6 8 5 4 3 6 4 3 4 2 4 5 4 3 8 9 7 4 3 4 2 7 7 7 11 12 12 12 15 17
18 12 3 1 2 2 3 4 4 1 5 8 8 2 2 13 18 18 14 9 5 4 1 3 3 4 5 5 5 5 7 4 2 3 6 4 8 1 5 11 16 17 9 12 15
Wind_Direction
45 53 58 60 63 65 66 44 30 17 40 57 29 7 52 52 41 6 30 358 349 345 337 339 338 289 285 283 272 258 238 235 230 221 250 255 207 239 246 243 254 233 236 223 177
41 47 54 60 68 66 67 42 35 29 60 52 46 57 109 2 21 358 1 356 350 340 335 348 346 335 324 280 290 271 248 243 252 278 241 236 247 245 225 223 248 224 241 234 179
37 44 52 61 75 70 73 43 47 45 58 27 32 26 21 282 110 2 359 345 338 321 310 313 314 337 292 305 257 266 285 358 333 354 357 318 327 315 241 264 107 197 232 236 185
33 36 49 58 77 74 81 50 48 44 55 36 30 22 23 64 44 353 342 340 333 330 324 316 312 312 301 305 283 277 255 301 310 335 338 319 319 328 285 242 292 302 219 224 202
31 29 41 49 69 88 103 59 45 39 36 50 24 25 27 46 8 359 350 351 357 359 353 329 305 291 223 278 322 252 278 289 303 296 300 300 290 284 283 260 291 294 265 207 196
28 24 32 33 43 115 167 87 45 39 30 38 43 3 25 41 3 2 358 354 13 1 345 330 276 277 266 269 270 274 292 293 289 294 264 277 288 279 260 248 283 282 323 222 205
24 24 26 18 30 106 233 195 46 31 26 9 20 347 18 15 3 3 3 19 358 344 326 329 299 242 273 300 292 300 284 312 255 227 244 213 270 237 268 251 287 292 290 249 215
20 19 25 18 50 43 304 223 61 25 27 31 355 52 83 3 4 7 3 24 11 342 7 30 163 280 237 278 322 315 322 18 284 295 225 138 280 215 261 242 256 277 291 319 302
16 17 21 19 52 14 346 216 166 29 51 54 27 123 24 9 10 2 10 26 38 58 73 78 57 144 25 64 353 360 239 281 300 339 273 186 259 224 223 221 258 243 279 287 315
13 14 18 22 41 18 52 117 147 47 42 36 25 46 355 352 4 4 18 31 44 62 41 28 19 39 24 42 246 260 345 288 246 302 339 307 246 301 250 219 282 272 299 290 305
9 15 14 24 27 31 53 109 134 44 47 73 52 84 2 1 8 6 5 32 32 36 31 18 44 326 291 260 277 239 272 317 268 304 344 4 260 260 269 147 263 285 314 297 337
11 11 13 17 26 40 52 96 103 122 77 28 13 20 15 7 1 7 5 31 25 27 358 13 324 331 322 353 273 225 89 278 277 218 74 326 283 305 242 70 47 17 21 12 347
13 11 14 9 26 42 46 65 112 119 84 2 348 355 8 5 21 4 5 357 28 1 355 9 290 324 337 7 42 5 150 296 262 293 165 262 302 110 44 63 42 24 19 12 0
18 12 16 17 14 18 35 33 88 147 79 334 354 12 354 3 33 3 5 14 12 331 330 275 302 334 349 348 349 7 355 321 311 7 290 82 147 36 354 51 33 14 5 6 357
4 9 17 25 28 13 4 31 121 145 44 331 345 335 357 33 305 349 2 11 57 302 56 282 294 330 350 333 28 235 318 297 295 278 204 314 83 358 25 359 3 357 2 4 356
31 13 17 17 16 9 2 63 122 43 306 334 342 354 2 358 343 344 1 25 18 353 350 255 298 67 291 306 170 329 14 345 272 309 21 346 96 354 25 347 340 349 353 2 352
56 20 24 17 3 0 9 88 42 74 3 320 332 345 333 313 322 14 356 14 32 10 9 325 309 312 347 354 9 359 31 11 17 12 34 360 58 29 332 345 342 339 347 352 0
80 31 24 15 0 357 6 54 63 155 314 345 333 318 334 2 357 342 7 10 16 56 18 29 345 16 333 126 249 307 111 133 147 26 345 13 88 226 228 333 345 353 352 358 2
116 41 24 9 0 354 348 47 177 202 282 325 323 352 323 358 9 0 46 352 232 46 84 12 294 318 297 320 70 314 34 200 75 271 40 13 343 275 351 348 355 360 359 358 2
84 8 17 3 2 3 65 110 164 189 155 109 336 52 301 318 358 12 358 332 344 11 157 288 297 226 299 3 346 106 230 36 358 50 26 301 240 215 328 338 335 348 351 350 360
54 89 8 4 14 49 90 149 196 205 179 171 225 278 254 298 14 308 283 306 346 328 57 135 108 293 9 13 215 351 17 359 117 87 143 334 278 207 219 230 285 316 353 359 0
39 50 4 14 43 48 84 160 184 199 200 226 228 232 225 282 276 287 289 215 359 344 346 223 164 286 239 237 161 131 187 126 96 311 106 149 275 245 233 294 314 328 355 358 359
61 25 12 24 69 11 234 247 210 186 200 184 240 212 183 236 338 210 252 224 12 27 344 299 347 349 350 8 9 54 309 114 122 88 226 112 274 293 312 335 342 325 350 352 357
27 23 22 51 79 112 15 219 292 210 214 198 237 217 251 253 216 272 269 237 346 3 353 142 116 156 200 226 177 316 317 89 109 81 247 229 293 313 305 313 325 336 341 345 350
24 48 23 341 16 65 139 253 299 289 219 208 245 219 171 293 307 234 249 306 358 352 31 88 203 280 249 258 261 253 262 228 151 197 165 256 235 273 268 264 297 328 328 335 343
40 349 327 292 305 335 22 244 252 291 193 235 194 191 170 194 199 250 157 192 235 344 39 2 296 353 295 292 243 277 265 214 200 207 276 257 274 215 255 294 295 316 320 327 339
22 3 353 333 351 60 229 221 233 147 246 239 212 172 207 241 258 267 265 248 225 120 348 42 33 29 274 0 333 326 239 201 190 219 165 195 229 220 296 302 310 315 306 318 331
Height
1529 1528 1527 1526 1525 1524 1523 1523 1521 1519 1516 1515 1514 1512 1511 1509 1508 1507 1509 1511 1507 1503 1497 1494 1491 1491 1490 1489 1488 1486 1477 1462 1461 1469 1471 1466 1467 1469 1469 1472 1471 1472 1474 1475 1476
1531 1530 1528 1528 1527 1526 1524 1525 1523 1519 1517 1516 1513 1510 1508 1507 1507 1506 1507 1506 1503 1500 1494 1493 1492 1491 1489 1487 1486 1485 1472 1463 1469 1470 1467 1466 1466 1467 1466 1465 1462 1466 1471 1474 1474
1533 1531 1530 1529 1529 1528 1526 1526 1524 1520 1517 1516 1513 1510 1507 1505 1506 1506 1505 1502 1499 1498 1495 1493 1492 1491 1489 1487 1486 1482 1474 1476 1472 1472 1473 1469 1466 1466 1461 1462 1463 1461 1468 1473 1474
1533 1532 1530 1530 1529 1528 1527 1526 1524 1522 1518 1516 1513 1511 1508 1503 1515 1507 1504 1500 1496 1491 1491 1491 1490 1491 1490 1488 1483 1484 1478 1481 1479 1475 1475 1475 1470 1465 1460 1458 1461 1462 1469 1467 1468
1534 1532 1530 1529 1529 1528 1527 1526 1525 1522 1520 1517 1514 1512 1509 1506 1510 1506 1501 1496 1491 1489 1488 1486 1486 1488 1488 1484 1484 1481 1477 1477 1480 1479 1476 1475 1468 1468 1460 1456 1458 1457 1455 1458 1460
1535 1532 1530 1528 1527 1527 1527 1526 1525 1522 1520 1518 1516 1514 1513 1509 1509 1505 1498 1492 1489 1488 1487 1487 1487 1487 1485 1483 1484 1479 1476 1475 1474 1473 1475 1472 1465 1467 1454 1456 1457 1457 1455 1453 1456
1535 1532 1529 1528 1526 1526 1525 1525 1524 1522 1520 1517 1515 1514 1513 1515 1509 1504 1496 1491 1488 1486 1484 1484 1485 1486 1484 1482 1481 1479 1476 1472 1470 1468 1464 1466 1463 1454 1455 1454 1458 1457 1455 1456 1458
1536 1532 1529 1527 1524 1524 1523 1523 1522 1521 1519 1517 1515 1513 1512 1511 1509 1503 1497 1491 1488 1485 1483 1483 1483 1484 1484 1482 1480 1480 1476 1484 1467 1463 1461 1462 1460 1452 1452 1453 1453 1461 1455 1453 1454
1536 1533 1529 1526 1524 1523 1521 1520 1522 1521 1518 1517 1514 1513 1514 1512 1505 1502 1494 1491 1489 1487 1485 1484 1484 1484 1484 1487 1493 1492 1493 1480 1470 1461 1459 1460 1457 1453 1453 1454 1451 1461 1460 1458 1457
1536 1533 1529 1526 1524 1522 1520 1520 1521 1521 1517 1516 1518 1519 1515 1513 1508 1504 1497 1494 1491 1488 1489 1488 1486 1486 1488 1495 1499 1498 1501 1481 1475 1462 1459 1458 1455 1450 1446 1451 1448 1456 1461 1461 1461
1536 1533 1529 1526 1524 1523 1520 1520 1524 1523 1520 1524 1526 1523 1520 1514 1510 1503 1498 1496 1493 1490 1492 1491 1499 1502 1490 1487 1485 1481 1479 1488 1468 1463 1461 1458 1455 1456 1456 1455 1454 1448 1461 1461 1460
1537 1533 1529 1526 1524 1523 1521 1520 1520 1524 1525 1525 1524 1522 1519 1515 1510 1505 1502 1497 1496 1498 1496 1497 1508 1490 1485 1481 1479 1481 1492 1481 1467 1461 1464 1461 1457 1458 1457 1460 1460 1456 1460 1459 1458
1538 1534 1529 1526 1524 1524 1522 1522 1521 1522 1525 1526 1524 1521 1519 1517 1515 1510 1505 1501 1501 1499 1500 1500 1495 1488 1486 1483 1488 1489 1489 1477 1475 1465 1460 1463 1463 1453 1461 1464 1467 1465 1468 1464 1463
1538 1534 1530 1526 1526 1524 1523 1522 1521 1522 1533 1532 1525 1525 1522 1516 1517 1516 1511 1506 1503 1504 1501 1499 1491 1489 1489 1493 1484 1498 1478 1476 1469 1472 1464 1462 1457 1470 1470 1470 1473 1478 1472 1468 1466
1538 1535 1531 1527 1527 1524 1524 1521 1521 1524 1548 1532 1529 1527 1525 1526 1525 1519 1516 1508 1508 1507 1508 1503 1497 1494 1489 1485 1485 1491 1478 1475 1469 1467 1463 1461 1465 1487 1478 1476 1479 1483 1477 1472 1472
1538 1535 1531 1528 1525 1524 1521 1520 1523 1530 1562 1540 1534 1533 1531 1528 1526 1522 1518 1512 1509 1507 1504 1503 1495 1494 1490 1482 1483 1483 1482 1474 1468 1469 1473 1465 1469 1500 1492 1495 1487 1481 1475 1473 1473
1538 1536 1532 1529 1527 1524 1521 1522 1531 1554 1549 1545 1545 1540 1539 1534 1528 1527 1526 1528 1531 1528 1528 1511 1500 1493 1489 1484 1483 1486 1488 1485 1476 1480 1463 1468 1487 1503 1500 1496 1497 1491 1485 1483 1477
1539 1537 1534 1531 1528 1525 1522 1524 1546 1557 1556 1551 1548 1542 1541 1538 1532 1532 1531 1538 1533 1537 1542 1538 1514 1504 1493 1499 1500 1498 1502 1510 1502 1489 1470 1479 1500 1508 1503 1501 1494 1489 1486 1479 1474
1539 1537 1535 1533 1530 1526 1526 1549 1564 1560 1560 1560 1552 1549 1544 1541 1543 1536 1540 1541 1542 1538 1549 1547 1530 1504 1499 1495 1497 1499 1502 1502 1506 1503 1485 1515 1508 1507 1501 1497 1495 1494 1487 1482 1478
1539 1538 1536 1534 1531 1529 1532 1552 1559 1558 1558 1560 1561 1557 1558 1549 1548 1545 1543 1539 1539 1535 1534 1541 1535 1508 1501 1497 1496 1500 1502 1511 1515 1510 1527 1525 1521 1518 1511 1502 1497 1492 1494 1488 1477
1538 1539 1539 1535 1533 1532 1552 1557 1556 1556 1557 1560 1559 1559 1557 1556 1555 1553 1547 1539 1537 1535 1533 1539 1546 1515 1504 1516 1522 1505 1514 1516 1516 1521 1529 1520 1505 1507 1508 1506 1502 1493 1487 1481 1480
1539 1539 1539 1535 1536 1546 1554 1554 1554 1555 1556 1557 1558 1557 1556 1557 1559 1554 1546 1540 1536 1535 1536 1533 1545 1541 1521 1513 1512 1519 1522 1533 1529 1523 1534 1522 1516 1498 1498 1497 1495 1491 1484 1484 1483
1540 1541 1541 1537 1548 1554 1553 1552 1553 1553 1554 1556 1555 1554 1554 1556 1562 1554 1544 1537 1536 1534 1537 1533 1542 1544 1515 1515 1512 1523 1526 1531 1537 1531 1543 1537 1513 1498 1496 1494 1492 1489 1487 1483 1479
1542 1544 1543 1543 1548 1551 1552 1550 1551 1551 1552 1552 1552 1552 1552 1552 1551 1553 1542 1537 1535 1534 1532 1531 1545 1541 1547 1529 1528 1530 1517 1527 1530 1541 1540 1529 1511 1501 1498 1494 1490 1488 1484 1480 1478
1547 1551 1551 1551 1549 1551 1552 1551 1550 1551 1551 1550 1550 1549 1554 1561 1558 1549 1542 1539 1535 1535 1533 1535 1541 1532 1527 1519 1519 1516 1514 1522 1524 1529 1527 1519 1516 1499 1496 1492 1488 1485 1483 1481 1476
1554 1555 1552 1550 1551 1550 1550 1552 1550 1548 1548 1548 1550 1544 1548 1553 1544 1549 1547 1546 1539 1537 1537 1538 1537 1536 1528 1513 1512 1510 1503 1506 1513 1518 1520 1521 1510 1490 1488 1487 1486 1484 1482 1479 1476
1557 1555 1553 1552 1551 1553 1552 1549 1547 1546 1542 1541 1541 1543 1546 1538 1534 1533 1532 1533 1533 1539 1542 1546 1546 1547 1533 1518 1516 1514 1503 1505 1511 1511 1505 1510 1495 1489 1488 1484 1480 1479 1479 1478 1475